Regional Weather Roundup
Issued by NWS Upton, NY

Home | Current Version | Previous Version | Text Only | Print | Product List | Glossary On
Versions: 1 2 3 4 5 6 7 8 9 10 11 12 13 14 15 16 17 18 19 20 21 22 23 24 25 26
000
ASUS41 KOKX 182305
RWROKX
REGIONAL WEATHER ROUNDUP
NATIONAL WEATHER SERVICE NEW YORK NY
700 PM EDT FRI APR 18 2014

NOTE: "FAIR" INDICATES FEW OR NO CLOUDS BELOW 12,000 FEET WITH NO
SIGNIFICANT WEATHER AND/OR OBSTRUCTIONS TO VISIBILITY.

NYZ071-072-176-178-NJZ106-104-190000-
NEW YORK CITY METRO AREA


CITY           SKY/WX    TMP DP  RH WIND       PRES   REMARKS
CENTRAL PARK   CLOUDY    46  30  53 VRB3      30.34F
LAGUARDIA APRT CLOUDY    44  30  57 S6        30.32F
KENNEDY INTL   CLOUDY    42  31  64 SE7       30.35F
NEWARK/LIBERTY CLOUDY    46  31  55 S7        30.32F
TETERBORO      CLOUDY    49  31  49 S7        30.31F
$$

NYZ177-179-078>081-190000-
LONG ISLAND NEW YORK

CITY           SKY/WX    TMP DP  RH WIND       PRES   REMARKS
FARMINGDALE    CLOUDY    41  32  70 S6        30.34F
ISLIP          CLOUDY    42  33  70 S7        30.31F
SHIRLEY        MOCLDY    42  34  73 S7        30.34F
WESTHAMPTON    MOCLDY    41  32  70 S3        30.34F
MONTAUK POINT    N/A     43  34  70 S5        30.34F
$$

NYZ052-065-067-190000-
HUDSON VALLEY

CITY           SKY/WX    TMP DP  RH WIND       PRES   REMARKS
WHITE PLAINS   CLOUDY    42  29  59 CALM      30.31F
NEWBURGH       PTCLDY    46  30  53 VRB6      30.29F
MONTGOMERY     CLOUDY    49  26  41 SW5       30.27F
POUGHKEEPSIE   CLOUDY    49  26  41 S6        30.28F
ALBANY         CLOUDY    49  26  41 S12       30.25F
$$

NJZ001-105-106-008-010-013-015-019>022-104-190000-
NEW JERSEY

CITY           SKY/WX    TMP DP  RH WIND       PRES   REMARKS
NEWARK/LIBERTY CLOUDY    46  31  55 S7        30.32F
TETERBORO      CLOUDY    49  31  49 S7        30.31F
CALDWELL       CLOUDY    47  29  49 SE8       30.31F
MORRISTOWN     CLOUDY    48  28  46 S7        30.31F
SOMERVILLE     MOCLDY    50  29  44 S3        30.29
LINDEN         FAIR      47  33  59 S7        30.35F
SUSSEX         CLOUDY    52  26  36 SW7       30.28F
ANDOVER          N/A     49  29  46 S6        30.28F
TRENTON        MOCLDY    50  29  44 S3        30.30F
MILLVILLE      MOCLDY    47  38  71 VRB3      30.33F
ATLANTIC CITY  MOCLDY    42  35  76 E7        30.34F
WRIGHTSTOWN    CLOUDY    45  34  65 SE8       30.30F
TOMS RIVER     MOCLDY    43  34  70 CALM      30.34F
BELMAR         MOCLDY    41  28  60 SE7       30.33F
$$

PAZ047>061-062-071-190000-
EASTERN PENNSYLVANIA

CITY           SKY/WX    TMP DP  RH WIND       PRES   REMARKS
PHILADELPHIA   MOCLDY    54  29  38 CALM      30.31F
ALLENTOWN      CLOUDY    52  30  43 S7        30.29F
SCRANTON       CLOUDY    50  29  44 S8G18     30.25S
$$

CTZ002-004>006-009-010-012-RIZ004-006-007-MAZ004-011-015-190000-
SOUTHERN NEW ENGLAND
 IN CT

CITY           SKY/WX    TMP DP  RH WIND       PRES   REMARKS
BRADLEY INTL   CLOUDY    48  26  42 S5        30.29F
HARTFORD       CLOUDY    49  28  44 SW3       30.30F
DANBURY        CLOUDY    44  27  51 S5        30.31F
WTRBRY/OXFORD  PTCLDY    43  28  56 S7        30.32F
BRIDGEPORT     CLOUDY    43  34  70 S5        30.33F
MERIDEN        CLOUDY    44  30  57 S8        30.32F
NEW HAVEN      CLOUDY    43  32  65 CALM      30.33F
CHESTER        FAIR      43  32  65 SW5       30.32F
GROTON         CLOUDY    41  35  79 S6        30.32F
WILLIMANTIC    CLOUDY    49  28  44 SW3       30.30F

 IN RI

CITY           SKY/WX    TMP DP  RH WIND       PRES   REMARKS
PROVIDENCE     CLOUDY    45  35  68 SE12      30.30F
BLOCK ISLAND   CLOUDY    43  32  65 SW5       30.32F
WESTERLY       CLOUDY    42  34  73 SW6       30.32F

 IN MA

CITY           SKY/WX    TMP DP  RH WIND       PRES   REMARKS
BOSTON         CLOUDY    39  31  72 E8        30.33F WCI  33
WORCESTER      CLOUDY    43  27  53 SW5       30.29F
WESTFIELD      CLOUDY    47  27  45 S8        30.29F
PROVINCETOWN   CLOUDY    39  37  93 MISG      30.35R
NANTUCKET      CLOUDY    41  35  79 NE7       30.31F
$$

ANZ330-335-338-340-345-350-353-355-190000-
COASTAL MARINE OBSERVATIONS


STATION/POSITION TIME  SKY/WX   TEMP    WIND        PRES    VSBY  WAVE
                                AIR SEA DIR/SP/G                  HT/PER
                 (UTC)          (F)     (DEG/KT/KT) (MB)    (MI)  (FT/S)
NY HARB ENTRANCE 2300            40 44   40/  6/  8 1027.4
4S FIRE IS       2200               45                N/A           5/11
23SW MTP         2300            41 42  130/  4/  4 1026.9          6/10
HUDSON CANYON    2200            41 44   50/ 10/ 12 1027.1          8/11
EXECUTION ROCKS  2300            43 42   90/  4/  6   N/A
WESTERN LI SOUND 2300            42     120/  4/  6   N/A           0
CENTRAL LI SOUND 2200            42 42  260/  4/  6   N/A           0
EASTERN LI SOUND NOT AVBL
ROBBINS REEF     2300            41     170/ 12/ 13   N/A
$$


>>>>>>>>>>>>>>>>>>>>>>>>>>>> KEY <<<<<<<<<<<<<<<<<<<<<<<<<<<
>                                                          <
>     SKY/WX - SKY CONDITION/PRESENT WEATHER               <
>     TMP    - TEMPERATURE IN FAHRENHEIT                   <
>     DP     - DEWPOINT IN FAHRENHEIT                      <
>     RH     - RELATIVE HUMIDITY IN PERCENT                <
>     WIND   - DIRECTION AND SPEED IN MPH                  <
>     PRES   - MEAN SEA LEVEL PRESSURE IN INCHES OF HG     <
>     WCI    - WIND CHILL INDEX                            <
>     VSB    - VISIBILITY IN MILES                         <
>     HX     - HEAT INDEX                                  <
>     TC     - TEMPERATURE IN CELSIUS                      <
>     VRB    - VARIABLE WIND DIRECTION                     <
>                                                          <
>>>>>>>>>>>>>>>>>>>>>>>>>>>> KEY <<<<<<<<<<<<<<<<<<<<<<<<<<<





USA.gov is the U.S. government's official web portal to all federal, state and local government web resources and services.